Location: Asis
(14.1331°N, 120.9056°E)
Time: 05:10:24
(UTC+00:00)

Okean 2 - Pass Details

Date: 15 January 2026
Orbit: 515 x 525 km, 82.5° (Epoch: 11 February)

Event Time Altitude Azimuth Distance (km) Brightness Sun altitude
Rises 10:12:58 0° 195° (SSW) 2,647 7.3 -6.7°
Reaches altitude 10° 10:15:10 10° 201° (SSW) 1,758 6.5 -7.2°
Maximum altitude 10:18:53 46° 275° (W) 705 4.4 -8.0°
Drops below altitude 10° 10:22:35 10° 349° (N) 1,753 5.8 -8.9°
Sets 10:24:47 0° 356° (N) 2,639 6.6 -9.4°
